Location: Doniaburen
(53.0000°N, 5.4290°E)
Time: 19:04:54
(UTC+00:00)

Daily predictions for brighter satellites

Satellite Brightness Start Highest point End
(mag) Time Altitude Azimuth Time Altitude Azimuth Time Altitude Azimuth
Cosmos 44 4.4 16:06:19 10° NW 16:10:49 30° NNE 16:15:29 10° E
Cosmos 2219 Rocket 2.6 16:08:38 10° S 16:14:01 47° ESE 16:19:24 10° NE
Cosmos 1500 Rocket 3.9 16:10:28 10° N 16:14:40 43° ENE 16:18:53 10° SE
Abrixas rocket 3.9 16:13:24 10° WSW 16:15:45 25° SSW 16:18:06 10° SE
Cosmos 2221 3.1 16:12:50 10° SSE 16:16:49 37° E 16:20:50 10° NNE
CZ-4B R/B 3.3 16:12:47 10° SE 16:17:58 53° ENE 16:23:08 10° N
ERS-2 4.2 16:17:05 10° ENE 16:18:14 11° E 16:19:23 10° ESE
Cosmos 1980 Rocket 4.0 16:14:06 10° W 16:18:24 22° NNW 16:22:44 10° NNE
SL-24 R/B - RUBIN 2 4.4 16:11:53 10° NW 16:18:26 69° NE 16:24:19 10° SE
SL-16 R/B 3.2 16:13:42 10° WSW 16:19:05 43° NW 16:24:32 10° NNE
Cosmos 1939 Rocket 4.2 16:17:14 10° ESE 16:19:52 18° ENE 16:22:33 10° NNE
NOAA 12 4.3 16:16:45 10° SE 16:21:54 52° ENE 16:27:05 10° N
Cosmos 468 Rocket 4.1 16:16:57 10° SSW 16:22:05 79° WNW 16:27:15 10° NNE
Cosmos 2237 Rocket 3.5 16:18:16 10° SSE 16:22:20 21° E 16:26:26 10° NE
Cosmos 1869 3.4 16:21:36 10° S 16:25:36 64° E 16:29:40 10° NNE
GENESIS II 4.4 16:22:35 10° NW 16:26:31 52° NE 16:30:21 10° ESE
CZ-4B R/B 3.2 16:26:56 11° ENE 16:27:53 12° E 16:29:11 10° ESE
USA 267 3.3 16:21:34 10° ESE 16:28:04 79° NNE 16:34:37 10° WNW
Cosmos 2322 3.7 16:24:19 10° SSW 16:29:58 76° ESE 16:35:40 10° NE
Cosmos 540 Rocket 3.5 16:25:28 10° SSW 16:30:32 66° ESE 16:35:38 10° NNE
YAOGAN 1 4.2 16:28:21 10° E 16:30:38 14° NE 16:32:57 10° NNE
Cosmos 2369 Rocket 3.6 16:26:58 10° NNW 16:31:06 20° NNE 16:34:50 11° ENE
NOSS 2-1 (E) 4.4 16:27:58 10° NW 16:32:47 81° SW 16:39:37 10° SE
Okean-O 4.0 16:32:46 10° E 16:35:47 18° NE 16:38:50 10° NNE
COSMO-SKYMED 1 4.2 16:33:45 11° ENE 16:35:54 15° E 16:38:23 10° ESE
AQUARIUS 4.2 16:31:44 10° SSE 16:36:08 57° ENE 16:40:33 10° N
Cosmos 1743 Rocket 3.5 16:32:12 10° N 16:36:42 70° ENE 16:41:08 10° SSE
Meteor 2-2 Rocket 4.5 16:31:13 10° S 16:37:01 56° E 16:42:46 10° NNE
Cosmos 841 Rocket 3.5 16:33:37 10° SSW 16:38:49 74° ESE 16:44:02 10° NNE
CORIOLIS 4.2 16:35:11 10° SSE 16:40:31 65° ENE 16:45:55 10° NNW
Envisat 3.2 16:36:15 10° S 16:41:20 77° WSW 16:46:27 10° NNW
Cosmos 1408 Rocket 4.2 16:38:49 10° NNW 16:43:10 59° W 16:47:27 10° S
H-2A R/B 2.9 16:39:51 10° S 16:44:11 71° WSW 16:48:24 10° NNW
H-2A R/B 3.9 16:42:03 10° S 16:45:44 47° W 16:49:31 10° NNW
H-2A R/B 3.3 16:44:10 10° E 16:47:54 20° NE 16:51:34 10° N
Sich 1 3.5 16:44:21 10° N 16:48:31 39° ENE 16:52:38 10° SE
Okean O Rocket 1.5 16:44:14 10° SSE 16:48:34 75° ENE 16:52:58 10° NNW
Nadezhda 1 Rocket 4.1 16:42:50 10° SSE 16:48:59 56° E 16:55:14 10° NNE
Aureole 2 Rocket 4.4 16:50:07 10° NW 16:52:27 26° WSW 16:54:51 10° SSW
Cosmos 1842 Rocket 3.5 16:48:20 10° S 16:52:40 86° ESE 16:57:02 10° NNE
Cosmos 2333 4.4 16:47:14 10° SW 16:52:55 77° WNW 16:58:35 10° NNE
Cosmos 405 Rocket 2.7 16:49:06 10° NNW 16:52:59 89° WSW 16:56:55 10° SSE
Cosmos 2297 4.1 16:50:01 10° NNW 16:55:24 42° NE 17:00:47 10° ESE
Cosmos 2154 Rocket 4.0 16:49:40 10° N 16:56:02 81° E 17:02:23 10° SSE
EP 1 4.3 16:53:16 10° SW 16:56:04 73° NW 16:57:36 22° NE
Cosmos 1805 Rocket 3.6 16:52:32 10° N 16:56:59 59° ENE 17:01:23 10° SSE
YAOGAN 6 3.5 16:57:56 10° S 17:01:31 53° W 17:05:07 10° NNW
Cosmos 1814 Rocket 4.0 16:56:21 10° SSW 17:01:42 85° ESE 17:07:02 10° NNE
Cosmos 1666 Rocket 4.1 16:58:51 10° N 17:02:56 36° ENE 17:07:00 10° SE
Cosmos 2341 Rocket 4.1 16:57:12 10° N 17:03:22 55° ENE 17:09:32 10° SSE
Cosmos 1943 Rocket 2.9 16:59:32 10° NNW 17:04:30 33° NE 17:07:55 18° E
SMAP 3.4 17:02:44 10° S 17:07:22 70° WSW 17:12:03 10° NNW
Cosmos 2322 Rocket 3.8 17:03:04 10° W 17:08:00 29° NW 17:12:56 10° NNE
Helios 1A Rocket 3.7 17:04:44 10° ESE 17:08:14 29° ENE 17:11:43 10° N
Cosmos 1570 Rocket 4.2 17:02:58 10° SSW 17:08:18 77° WNW 17:13:37 10° NNE
USA 281 3.3 17:02:26 10° SE 17:08:50 58° NE 17:15:17 10° NNW
SL-16 R/B 3.5 17:05:43 10° SE 17:09:29 19° E 17:09:55 18° E
Cosmos 1151 Rocket 4.4 17:07:36 10° SE 17:09:50 19° ESE 17:09:50 19° ESE
CZ-4C R/B 3.8 17:08:59 10° N 17:12:31 53° WNW 17:16:04 10° SSW
ARGOS 4.1 17:15:45 22° E 17:17:14 25° ENE 17:21:34 10° N
Cosmos 2285 Rocket 4.2 17:12:28 10° NNW 17:18:45 52° NE 17:24:57 10° SE
CREW DRAGON DEMO-1 DEB 3.3 17:16:21 10° W 17:19:17 54° SSW 17:20:29 30° SE
NOSS 0 Rocket 4.0 17:13:35 10° SSW 17:19:44 64° ESE 17:24:41 16° NE
Feng Yun 1-1 Rocket 4.2 17:14:58 10° SSE 17:20:47 77° ENE 17:26:28 10° NNW
Cosmos 1606 3.0 17:17:17 10° SSE 17:21:01 44° E 17:23:04 23° NE
Cosmos 389 Rocket 2.9 17:17:52 10° SSE 17:21:02 36° E 17:21:16 35° E
Cosmos 405 4.0 17:17:45 10° SSW 17:21:08 47° WNW 17:24:32 10° N
CZ-2C R/B 3.3 17:17:38 10° SE 17:22:25 42° ENE 17:27:01 10° N
Cosmos 2333 Rocket 2.6 17:17:13 10° SW 17:22:50 62° NW 17:28:10 12° NNE
H-2A R/B 2.3 17:19:22 10° N 17:23:29 66° WNW 17:27:38 10° SSW
Cosmos 2084 Rocket 4.3 17:20:02 10° WSW 17:24:00 42° NNW 17:26:26 21° NNE
SKYMED 2 4.0 17:22:23 24° NE 17:24:26 38° E 17:28:29 10° SSE
Meteor 1-20 Rocket 4.3 17:18:51 10° N 17:24:37 56° ENE 17:30:22 10° SSE
Landsat 5 4.5 17:22:10 10° N 17:26:21 50° WNW 17:30:38 10° SW
COSMOS 2428 3.0 17:22:21 10° SW 17:28:05 70° NW 17:33:11 13° NNE
Cosmos 1607 4.5 17:22:00 10° WSW 17:28:16 57° NW 17:33:13 17° NE
ADEOS Rocket 4.1 17:23:41 10° N 17:31:00 59° WNW 17:38:36 10° SW
Cosmos 724 4.3 17:25:07 10° SW 17:31:03 87° NW 17:35:18 21° NE
SL-8 Rocket 3.9 17:25:09 10° N 17:31:21 65° ENE 17:37:33 10° SSE
Cosmos 2278 Rocket 3.4 17:28:15 10° NW 17:33:37 45° WSW 17:38:58 10° S
Cosmos 1633 Rocket 3.0 17:30:21 10° N 17:34:42 58° ENE 17:39:01 10° SSE
USA 215 3.5 17:32:16 26° ENE 17:35:57 54° SE 17:42:20 10° SW
Cosmos 2181 Rocket 4.1 17:32:57 10° SSE 17:39:08 53° E 17:45:19 10° NNE
CZ-4 R/B 1.4 17:37:52 25° SE 17:39:53 52° ENE 17:43:48 10° N
SAR-Lupe-4 3.9 17:40:59 44° SE 17:40:59 44° SE 17:44:01 10° S
Cosmos 1959 Rocket 4.5 17:34:36 10° N 17:40:57 64° ENE 17:47:15 10° SSE
Meteor 1-25 Rocket 4.1 17:35:22 10° N 17:40:58 69° ENE 17:46:35 10° SSE
CZ-2D R/B 3.1 17:43:41 10° SSE 17:47:30 85° ENE 17:51:22 10° NNW
Cosmos 2360 Rocket 3.9 17:45:00 10° W 17:49:41 26° NW 17:54:11 11° NNE
BREEZE-M DEB (TANK) 4.5 17:48:27 10° SSW 17:48:48 12° S 17:48:48 12° S
Cosmos 1356 4.0 17:46:59 10° NNW 17:50:21 58° W 17:53:44 10° S
ERS-2 2.1 17:50:53 36° N 17:52:19 82° WNW 17:55:59 10° SSW
Cosmos 44 3.4 17:47:30 10° NW 17:52:45 82° NE 17:55:25 31° SE
IRS-1C Rocket 4.2 17:47:47 10° SSE 17:53:05 79° WSW 17:58:24 10° NNW
DEBRIS 4.3 17:37:57 10° W 17:54:11 68° S 17:56:23 35° ESE
Cosmos 1939 Rocket 3.3 17:50:37 10° S 17:54:26 60° W 17:58:18 10° NNW
Cosmos 2221 4.4 17:50:40 10° SW 17:54:28 29° WNW 17:58:17 10° N
CSL-04 Debris 4.2 17:51:53 21° SE 17:55:29 54° ENE 18:00:51 10° N
SL-08 R/B 4.5 17:50:51 10° N 17:56:56 53° ENE 18:02:55 10° SSE
SJ-11-01 4.3 17:57:31 51° E 17:57:59 53° ENE 18:02:37 10° N
Cosmos 2219 Rocket 3.2 17:52:42 10° WSW 17:58:05 42° NW 18:02:22 16° NNE
ISS -2.4 17:56:45 10° SW 17:59:04 30° S 17:59:04 30° S
CZ-4B R/B 2.0 18:00:04 46° NW 18:00:26 49° WNW 18:03:24 10° SSW
Cosmos 1980 Rocket 4.4 18:02:21 10° NNW 18:04:41 12° N 18:06:34 11° NNE
SL-16 R/B 4.4 18:01:09 10° WNW 18:04:46 17° NNW 18:08:09 11° NNE
Cosmos 2237 Rocket 2.2 18:00:06 10° SSW 18:05:44 83° WNW 18:08:38 30° NNE
YAOGAN 1 2.4 18:03:51 28° SSE 18:06:05 82° ENE 18:10:26 10° NNW
Cosmos 1470 Rocket 3.6 18:04:44 10° N 18:08:28 60° NNE 18:08:28 60° NNE
USA 267 3.8 18:05:49 14° SE 18:11:23 53° SW 18:17:45 10° WNW
Okean-O 2.7 18:07:20 10° S 18:11:47 77° WSW 18:16:14 10° NNW
COSMO-SKYMED 1 2.6 18:10:59 38° N 18:12:38 80° WNW 18:16:58 10° SSW
SL-24 R/B 3.8 18:13:04 85° NNE 18:13:11 90° ESE 18:17:05 10° SSW
USA 81 4.3 18:09:28 10° N 18:14:45 70° W 18:20:00 10° S
Cosmos 2218 Rocket 4.0 18:08:55 10° NNW 18:15:07 79° W 18:21:14 10° S
Cosmos 1656 Rocket 4.4 18:10:16 10° NNW 18:14:55 37° NNE 18:14:55 37° NNE
Cosmos 2369 Rocket 2.2 18:10:45 10° NNW 18:16:24 57° NE 18:16:39 57° ENE
CSL-04 Rocket 3.5 18:18:44 43° SE 18:20:30 76° ENE 18:25:51 10° NNW
Cosmos 1980 4.1 18:18:08 10° SW 18:23:46 62° NW 18:26:25 32° NNE
H-2A R/B 2.0 18:23:36 26° SSE 18:26:43 90° W 18:31:58 10° NNW
Cosmos 2366 rocket 4.2 18:21:22 10° NNW 18:27:33 68° W 18:33:39 10° S
Cosmos 1933 4.0 18:27:59 10° SSW 18:31:27 53° WSW 18:31:27 53° WSW
Meteor 1-14 Rocket 4.3 18:27:56 10° NNW 18:33:52 87° WSW 18:38:09 20° S
Cosmos 1932 4.5 18:29:47 10° SW 18:36:21 84° NW 18:37:56 55° NE
Helios 1A Rocket 4.3 18:39:39 10° SSW 18:43:18 36° W 18:47:03 10° NNW
Cosmos 1151 Rocket 4.2 18:43:48 10° SSW 18:46:45 38° SW 18:46:45 38° SW
Cosmos 1943 Rocket 2.4 18:43:10 10° NW 18:48:40 65° WSW 18:49:30 57° SSW
Meteor 1-26 Rocket 4.4 18:44:53 10° SSW 18:50:54 77° WNW 18:53:29 37° N
SL-16 R/B 2.4 18:47:10 10° SSW 18:51:51 62° SSW 18:51:51 62° SSW
MOS 1 Rocket 3.8 18:53:32 72° WSW 18:53:32 72° WSW 18:58:36 10° SSW
USA 281 4.4 18:47:30 10° S 18:53:36 40° WSW 18:59:44 10° NW
Cosmos 2322 Rocket 4.4 18:51:11 10° NW 18:54:03 14° NNW 18:55:32 13° N
ARGOS 3.3 18:57:16 70° W 18:57:16 70° W 19:02:29 10° NNW
CZ-2C R/B 4.5 18:57:45 10° SSW 19:02:25 34° W 19:06:54 10° NNW
Cosmos 2333 Rocket 4.2 19:04:04 10° WNW 19:08:17 21° NNW 19:10:10 18° N
Cosmos 1867 4.4 19:04:24 10° SW 19:08:14 47° WSW 19:08:14 47° WSW
CZ-4 R/B 3.9 19:13:55 16° WSW 19:15:14 19° W 19:18:07 10° NW
USA 215 3.3 19:19:37 75° WNW 19:19:37 75° WNW 19:25:46 10° WSW
Cosmos 2219 Rocket 4.4 19:40:05 10° WNW 19:43:36 16° NNW 19:44:05 16° NNW
Cosmos 2237 Rocket 4.1 19:46:06 10° W 19:50:29 25° NW 19:50:29 25° NW
Cosmos 2369 Rocket 4.0 19:55:10 10° NW 19:58:28 27° WNW 19:58:28 27° WNW
